Home > Weather > Belém > Past weeks

Flag for Brazil Past Weather in Belém, Pará, Brazil — Yesterday and Last 2 Weeks

Now
79 °F

Clear.


Feels Like: 82 °F
Forecast: 77 / 92 °F
Wind: 7 mph from Northeast

Location: Belem Aeroporto

Current Time: Jul 25, 2016 at 11:38:03 PM

Latest Report: Jul 25, 2016 at 11:00 PM


Visibility: 10 mi

Pressure: 29.92 "Hg

Humidity: 79%

Dew Point: 72 °F

Location of BelémLocation

Past Weather in Belém — Graph

°F

Belém Temperature Yesterday

Maximum temperature yesterday: 90 °F (at 4:00 PM)
Minimum temperature yesterday: 75 °F (at 2:00 AM)
Average temperature yesterday: 82 °F

High & Low Weather Summary for the Past Weeks

 TemperatureHumidityPressure
High90 °F (Jul 12, 1:00 PM)94% (Jul 11, 12:00 AM)29.98 "Hg (Jul 11, 12:00 AM)
Low73 °F (Jul 11, 6:00 AM)49% (Jul 23, 3:00 PM)29.77 "Hg (Jul 15, 4:00 PM)
Average80 °F80%29.90 "Hg
* Reported Jul 10 10:00 PM — Jul 25 10:00 PM, Belém, Weather by CustomWeather, © 2016

Note: Actual official high and low records may vary slightly from our data, if they occured in-between our weather recording intervals... More about our weather records

Advertising

Belém Weather History for the Previous 24 Hours

Scroll right to see more
 ConditionsComfort  
Time TempWeatherWind HumidityBarometerVisibility
10:00 PM
Mon, Jul 25
79 °FClear.8 mph79%29.92 "Hg10 mi
9:00 PM79 °FPassing clouds.7 mph84%29.89 "HgN/A
8:00 PM81 °FPartly cloudy.9 mph74%29.89 "HgN/A
7:00 PM82 °FPartly cloudy.7 mph74%29.86 "HgN/A
6:00 PM84 °FBroken clouds.7 mph74%29.83 "HgN/A
5:00 PM88 °FBroken clouds.7 mph52%29.83 "HgN/A
4:00 PM90 °FScattered clouds.6 mph49%29.80 "HgN/A
3:00 PM90 °FScattered clouds.10 mph49%29.83 "HgN/A
2:00 PM88 °FScattered clouds.2 mph62%29.86 "HgN/A
1:00 PM88 °FBroken clouds.7 mph59%29.86 "HgN/A
12:00 PM86 °FPartly sunny.6 mph66%29.89 "HgN/A
11:00 AM88 °FPartly sunny.5 mph62%29.92 "HgN/A
10:00 AM84 °FPartly sunny.7 mph70%29.92 "HgN/A
9:00 AM81 °FBroken clouds.9 mph84%29.92 "HgN/A
8:00 AM79 °FSunny.6 mph84%29.89 "Hg10 mi
7:00 AM75 °FSunny.5 mph94%29.89 "Hg10 mi
6:00 AM75 °FClear.6 mph94%29.86 "Hg10 mi
5:00 AM75 °FClear.5 mph94%29.86 "Hg10 mi
4:00 AM75 °FClear.6 mph94%29.86 "Hg10 mi
3:00 AM75 °FClear.7 mph94%29.86 "Hg10 mi
2:00 AM77 °FClear.9 mph89%29.86 "Hg10 mi
1:00 AM77 °FClear.9 mph89%29.89 "Hg10 mi
12:00 AM77 °FClear.9 mph89%29.92 "Hg10 mi
11:00 PM
Sun, Jul 24
79 °FClear.10 mph84%29.92 "Hg10 mi
Weather by CustomWeather, © 2016

See weather overviewHow to use our weather pages